Location: Hilton Head Island
(32.2163°N, 80.7526°W)
Time: 08:02:27
(UTC-04:00)

Vanguard 1 - Pass Details

Date: 21 February 2026
Orbit: 653 x 3818 km, 34.2° (Epoch: 17 March)

Event Time Altitude Azimuth Distance (km) Brightness Sun altitude
Rises 15:35:29 0° 259° (W) 4,209 14.2 29.7°
Reaches altitude 10° 15:37:46 10° 260° (W) 3,512 14.1 29.3°
Maximum altitude 15:47:14 86° 350° (N) 2,136 12.2 27.7°
Drops below altitude 10° 16:05:27 10° 81° (E) 6,270 13.7 24.5°
Sets 16:11:08 0° 82° (E) 7,617 14.1 23.5°
